Nagpur Sonegaon, India

9:31 PM IST on October 17, 2017 (GMT +0530)
Nagpur

Weather History for VANP - October, 2012

Change the Weather History Date:

Friday, October 12, 2012

  Actual Average Record
Temperature  
Mean Temperature 77 °F -  
Max Temperature 92 °F 89 °F - ()
Min Temperature 62 °F 65 °F - ()
Cooling Degree Days 12    
Growing Degree Days 27 (Base 50)    
Moisture  
Dew Point 62 °F    
Average Humidity 59    
Maximum Humidity 90    
Minimum Humidity 23    
Precipitation  
Precipitation 0.00 in 0.07 in - ()
Sea Level Pressure  
Sea Level Pressure 29.85 in    
Wind  
Wind Speed 2 mph ()    
Max Wind Speed 9 mph    
Max Gust Speed -    
Visibility 3.0 miles    
Events      
T = Trace of Precipitation, MM = Missing Value Source: Averaged Metar Reports

Daily Weather History Graph

Daily Weather History Graph

Search for Another Location

Airport or City:

Trip Planner

Search our weather history database for the weather conditions in past years. The results will help you decide how hot, cold, wet, or windy it might be!

Date:

Astronomy

Oct. 12, 2012 Rise Set
Actual Time 6:08 AM IST 5:51 PM IST
Civil Twilight 5:45 AM IST 6:14 PM IST
Nautical Twilight 5:20 AM IST 6:39 PM IST
Astronomical Twilight 4:54 AM IST 7:05 PM IST
Moon 2:45 AM IST (10/12) 3:25 PM IST (10/12)
Length of Visible Light 12h 28m
Length of Day
11h 43m
Waning Crescent, 14% of the Moon is Illuminated
Oct 12
Waning Crescent
Oct 15
New
Oct 22
First Quarter
Oct 30
Full
Nov 7
Last Quarter

Hourly Weather History & Observations

Time (IST) Temp. Heat Index Dew Point Humidity Pressure Visibility Wind Dir Wind Speed Gust Speed Precip Events Conditions
12:10 AM 69.8 °F - 64.4 °F 83% 29.83 in 3.1 mi South 2.3 mph - N/A   Haze
1:10 AM 69.8 °F - 62.6 °F 78% 29.83 in 3.1 mi NW 2.3 mph - N/A   Haze
2:10 AM 69.8 °F - 62.6 °F 78% 29.83 in 3.1 mi WNW 2.3 mph - N/A   Haze
2:30 AM 65 °F - 62 °F 87% 29.81 in 2 mi Calm Calm - -   Haze
3:10 AM 69.8 °F - 60.8 °F 73% 29.83 in 3.1 mi Calm Calm - N/A   Haze
4:10 AM 71.6 °F - 60.8 °F 69% 29.83 in 3.1 mi North 3.5 mph - N/A   Haze
5:10 AM 71.6 °F - 44.6 °F 38% 29.83 in 3.1 mi Calm Calm - N/A   Haze
5:30 AM 64 °F - 62 °F 90% 29.85 in 2 mi Calm Calm - -   Haze
6:10 AM 66.2 °F - 59.0 °F 78% 29.86 in 3.1 mi Calm Calm - N/A   Haze
7:10 AM 71.6 °F - 60.8 °F 69% 29.89 in 3.1 mi NW 2.3 mph - N/A   Haze
8:10 AM 77.0 °F - 62.6 °F 61% 29.92 in 3.1 mi North 2.3 mph - N/A   Haze
8:30 AM 77 °F - 65 °F 57% 29.89 in 2 mi NE 2.3 mph - -   Haze
9:10 AM 82.4 °F 84.6 °F 66.2 °F 58% 29.92 in 3.7 mi NE 2.3 mph - N/A   Unknown
11:10 AM 91.4 °F 94.0 °F 66.2 °F 43% 29.92 in 3.7 mi SE 2.3 mph - N/A   Unknown
11:30 AM 90 °F - 66 °F 35% 29.84 in 2 mi South 3.5 mph - -  
12:10 PM 93.2 °F 94.9 °F 64.4 °F 38% 29.89 in 3.7 mi SSE 2.3 mph - N/A   Unknown
1:10 PM 95.0 °F 93.7 °F 57.2 °F 28% 29.86 in 3.7 mi North 4.6 mph - N/A   Unknown
2:10 PM 93.2 °F 92.6 °F 59.0 °F 32% 29.83 in 3.7 mi NNE 4.6 mph - N/A   Unknown
2:30 PM 91 °F - 58 °F 23% 29.76 in 2 mi NNW 9.2 mph - -  
3:10 PM 95.0 °F 93.7 °F 57.2 °F 28% 29.80 in 3.7 mi NNE 2.3 mph - N/A   Unknown
4:10 PM 91.4 °F 89.9 °F 57.2 °F 31% 29.80 in 3.7 mi NNE 4.6 mph - N/A   Unknown
5:10 PM 91.4 °F 95.4 °F 68.0 °F 46% 29.80 in 3.7 mi SSE 2.3 mph - N/A   Unknown
5:30 PM 82 °F - 71 °F 61% 29.77 in 2 mi SE 2.3 mph - -  
6:10 PM 84.2 °F 89.6 °F 71.6 °F 66% 29.83 in 3.7 mi Calm Calm - N/A   Unknown
7:10 PM 77.0 °F - 66.2 °F 69% 29.83 in 3.1 mi Calm Calm - N/A   Haze
9:10 PM 75.2 °F - 62.6 °F 65% 29.89 in - Calm Calm - N/A   Haze
10:10 PM 75.2 °F - 62.6 °F 65% 29.89 in 3.1 mi East 2.3 mph - N/A   Haze
11:10 PM 71.6 °F - 62.6 °F 73% 29.89 in 3.1 mi WNW 2.3 mph - N/A   Haze
11:30 PM 68 °F - 64 °F 82% 29.86 in 2 mi Calm Calm - -   Haze